DW7898 Weather Reports


time (UTC)temp
F
wind
direction
speed
knots
gust
knots
rain 1hr
in
rain 24hr
in
rain mn
in
humidity
%
barometer
mb
20220124101341 39 56 0.0 0.0 0.00 0.00 0.00 85 1031.4
20220124100340 39 56 0.0 0.0 0.00 0.00 0.00 85 1031.4
20220124095339 39 56 0.0 0.0 0.00 0.00 0.00 87 1031.5
20220124094340 38 56 0.0 0.0 0.00 0.00 0.00 88 1031.4
20220124093340 37 38 0.0 0.0 0.00 0.00 0.00 89 1031.4
20220124092355 36 38 0.0 0.0 0.00 0.00 0.00 88 1031.4
20220124091339 35 38 0.0 0.0 0.00 0.00 0.00 88 1031.3
20220124090343 35 38 0.0 0.0 0.00 0.00 0.00 88 1031.2
20220124085342 34 40 0.0 0.0 0.00 0.00 0.00 88 1031.2
20220124084341 34 42 0.0 0.0 0.00 0.00 0.00 88 1031.3
20220124083339 33 43 0.0 0.0 0.00 0.00 0.00 88 1031.3
20220124082346 33 41 0.0 0.0 0.00 0.00 0.00 88 1031.1
20220124081356 33 41 0.0 0.0 0.00 0.00 0.00 88 1031.0
20220124080344 33 41 0.0 0.0 0.00 0.00 0.00 88 1031.0
20220124075354 33 41 0.0 0.0 0.00 0.00 0.00 88 1030.8
20220124074341 33 41 0.0 0.0 0.00 0.00 0.00 88 1030.7
20220124073340 33 41 0.0 0.0 0.00 0.00 0.00 88 1030.6
20220124072348 32 41 0.0 0.0 0.00 0.00 0.00 88 1030.3
20220124071346 32 41 0.0 0.0 0.00 0.00 0.00 88 1030.3
20220124070349 32 42 0.0 0.0 0.00 0.00 0.00 88 1030.1
20220124065357 32 40 0.0 0.0 0.00 0.00 0.00 88 1030.0
20220124064342 32 39 0.0 0.0 0.00 0.00 0.00 88 1030.0
20220124063347 32 39 0.0 0.0 0.00 0.00 0.00 88 1029.9
20220124062344 32 39 0.0 0.0 0.00 0.00 0.00 88 1029.8
20220124061341 32 39 0.0 0.0 0.00 0.00 0.00 88 1029.6
20220124060341 32 39 0.0 0.0 0.00 0.00 0.00 88 1029.7
20220124055341 32 39 0.0 0.0 0.00 0.00 0.00 88 1029.4
20220124054345 32 39 0.0 0.0 0.00 0.00 0.00 87 1029.4
20220124053348 32 39 0.0 0.0 0.00 0.00 0.00 87 1029.3
20220124052345 32 39 0.0 0.0 0.00 0.00 0.00 87 1029.2
20220124051346 33 39 0.0 0.0 0.00 0.00 0.00 87 1029.1
20220124050341 33 39 0.0 0.0 0.00 0.00 0.00 88 1029.3
20220124045347 33 39 0.0 0.0 0.00 0.00 0.00 87 1029.1
20220124044342 33 39 0.0 0.0 0.00 0.00 0.00 88 1029.1
20220124043351 33 39 0.0 0.0 0.00 0.00 0.00 87 1029.0
20220124042344 33 39 0.0 0.0 0.00 0.00 0.00 87 1029.1
20220124041353 33 39 0.0 0.0 0.00 0.00 0.00 87 1029.0
20220124040355 33 39 0.0 0.0 0.00 0.00 0.00 87 1029.0
20220124035358 33 41 0.0 0.0 0.00 0.00 0.00 87 1028.9
20220124034339 33 40 0.0 0.0 0.00 0.00 0.00 88 1028.9
20220124033345 34 35 0.0 0.0 0.00 0.00 0.00 87 1028.9
20220124032338 34 36 0.0 0.0 0.00 0.00 0.00 88 1028.9
20220124031338 34 35 0.0 0.0 0.00 0.00 0.00 87 1028.8
20220124030338 34 35 0.0 0.0 0.00 0.00 0.00 87 1029.0
20220124025356 34 35 0.0 0.0 0.00 0.00 0.00 87 1029.1
20220124024338 34 35 0.0 0.0 0.00 0.00 0.00 87 1029.0
20220124023338 34 35 0.0 0.0 0.00 0.00 0.00 87 1029.0
20220124022341 34 35 0.0 0.0 0.00 0.00 0.00 87 1029.1
20220124021352 34 35 0.0 0.0 0.00 0.00 0.00 87 1029.1
20220124020355 34 35 0.0 0.0 0.00 0.00 0.00 86 1029.0
20220124015359 34 35 0.0 0.0 0.00 0.00 0.00 86 1029.0
20220124014349 34 35 0.0 0.0 0.00 0.00 0.00 86 1029.1
20220124013344 35 31 0.0 0.0 0.00 0.00 0.00 85 1029.0
20220124012343 35 31 0.0 0.0 0.00 0.00 0.00 85 1029.0
20220124011349 36 31 0.0 0.0 0.00 0.00 0.00 85 1029.1
20220124010358 36 31 0.0 0.0 0.00 0.00 0.00 85 1029.1
20220124005358 36 31 0.0 0.0 0.00 0.00 0.00 85 1029.0
20220124004338 36 31 0.0 0.0 0.00 0.00 0.00 86 1029.2
20220124003343 36 31 0.0 0.0 0.00 0.00 0.00 85 1029.1
20220124002343 36 31 0.0 0.0 0.00 0.00 0.00 85 1029.2
20220124001341 37 31 0.0 0.0 0.00 0.00 0.00 85 1029.2
20220124000343 37 1 0.0 0.0 0.00 0.00 0.00 85 1029.2
20220123235338 37 341 0.0 0.0 0.00 0.00 0.00 85 1029.3
20220123234341 37 0 0.0 0.0 0.00 0.00 0.00 84 1029.4
20220123233344 37 0 0.0 0.0 0.00 0.00 0.00 84 1029.4
20220123232356 38 0 0.0 0.0 0.00 0.00 0.00 84 1029.5
20220123231337 38 0 0.0 0.0 0.00 0.00 0.00 84 1029.6
20220123230356 38 0 0.0 0.0 0.00 0.00 0.00 83 1029.7
20220123225339 38 0 0.0 0.0 0.00 0.00 0.00 83 1029.7
20220123224344 38 0 0.0 0.0 0.00 0.00 0.00 83 1029.6
20220123223345 39 0 0.0 0.0 0.00 0.00 0.00 83 1029.5
20220123222344 39 0 0.0 0.0 0.00 0.00 0.00 82 1029.4
20220123221344 39 0 0.0 0.0 0.00 0.00 0.00 82 1029.3
20220123220347 39 0 0.0 0.0 0.00 0.00 0.00 83 1029.3
20220123215339 39 0 0.0 0.0 0.00 0.00 0.00 82 1029.2
20220123214342 40 0 0.0 0.0 0.00 0.00 0.00 82 1029.2
20220123213355 40 0 0.0 0.0 0.00 0.00 0.00 82 1029.1
20220123212339 41 0 0.0 0.0 0.00 0.00 0.00 82 1029.1
20220123211340 41 0 0.0 0.0 0.00 0.00 0.00 81 1029.2
20220123210345 41 0 0.0 0.0 0.00 0.00 0.00 81 1029.1
20220123205337 41 0 0.0 0.0 0.00 0.00 0.00 80 1028.9
20220123204340 42 0 0.0 0.0 0.00 0.00 0.00 80 1028.9
20220123203342 42 0 0.0 0.0 0.00 0.00 0.00 79 1028.7
20220123202341 42 0 0.0 0.0 0.00 0.00 0.00 79 1028.9
20220123201355 43 0 0.0 0.0 0.00 0.00 0.00 79 1028.7
20220123200338 43 0 0.0 0.0 0.00 0.00 0.00 78 1028.5
20220123195339 44 0 0.0 0.0 0.00 0.00 0.00 78 1028.6
20220123194344 44 0 0.0 0.0 0.00 0.00 0.00 78 1028.4
20220123193357 44 0 0.0 0.0 0.00 0.00 0.00 78 1028.5
20220123192340 44 0 0.0 0.0 0.00 0.00 0.00 77 1028.3
20220123191335 44 0 0.0 0.0 0.00 0.00 0.00 77 1028.4
20220123190341 44 0 0.0 0.0 0.00 0.00 0.00 76 1028.4
20220123185343 45 0 0.0 4.3 0.00 0.00 0.00 75 1028.3
20220123184344 46 28 0.0 0.0 0.00 0.00 0.00 74 1028.3
20220123183342 47 8 0.0 0.9 0.00 0.00 0.00 74 1028.3
20220123182339 47 21 0.0 0.0 0.00 0.00 0.00 73 1028.2
20220123181343 48 44 0.0 0.0 0.00 0.00 0.00 73 1028.0
20220123180347 48 56 0.0 0.0 0.00 0.00 0.00 72 1028.1
20220123175347 49 106 0.0 0.0 0.00 0.00 0.00 72 1028.1
20220123174347 49 106 0.0 0.0 0.00 0.00 0.00 71 1027.9
20220123173348 50 110 0.0 0.0 0.00 0.00 0.00 71 1027.9
20220123172347 50 142 0.0 2.6 0.00 0.00 0.00 70 1027.8
20220123171355 50 122 0.0 3.5 0.00 0.00 0.00 70 1027.7
20220123170341 50 152 0.0 4.3 0.00 0.00 0.00 69 1027.7
20220123165345 51 149 0.0 3.5 0.00 0.00 0.00 68 1027.6
20220123164349 51 99 1.7 3.5 0.00 0.00 0.00 67 1027.5
20220123163354 51 132 1.7 4.3 0.00 0.00 0.00 67 1027.4
20220123162357 51 133 1.7 5.2 0.00 0.00 0.00 67 1027.5
20220123161341 52 113 1.7 7.0 0.00 0.00 0.00 66 1027.4
20220123160345 52 136 1.7 7.0 0.00 0.00 0.00 65 1027.4
20220123155340 52 143 2.6 7.0 0.00 0.00 0.00 64 1027.3
20220123154343 52 117 0.9 7.0 0.00 0.00 0.00 64 1027.3
20220123153346 52 130 0.9 7.8 0.00 0.00 0.00 64 1027.2
20220123152341 52 223 1.7 7.0 0.00 0.00 0.00 64 1027.3
20220123151340 52 124 3.5 7.8 0.00 0.00 0.00 64 1027.2
20220123150340 52 144 2.6 8.7 0.00 0.00 0.00 63 1027.1
20220123145341 53 119 3.5 8.7 0.00 0.00 0.00 62 1027.1
20220123144340 53 138 2.6 8.7 0.00 0.00 0.00 61 1027.1
20220123143341 54 138 3.5 7.0 0.00 0.00 0.00 57 1027.2
20220123142342 55 229 4.3 6.1 0.00 0.00 0.00 55 1027.1
20220123141344 55 188 0.0 6.1 0.00 0.00 0.00 54 1027.2
20220123140348 54 202 0.0 7.8 0.00 0.00 0.00 54 1027.2
20220123135342 55 156 0.0 5.2 0.00 0.00 0.00 53 1027.4
20220123134340 54 247 3.5 7.0 0.00 0.00 0.00 52 1027.5
20220123133346 54 219 3.5 6.1 0.00 0.00 0.00 50 1027.6
20220123132340 53 194 2.6 7.0 0.00 0.00 0.00 51 1027.7
20220123131352 54 200 2.6 6.1 0.00 0.00 0.00 51 1027.9
20220123130338 53 219 3.5 7.0 0.00 0.00 0.00 52 1028.2
20220123125341 52 210 5.2 7.0 0.00 0.00 0.00 52 1028.2
20220123124345 52 242 3.5 6.1 0.00 0.00 0.00 52 1028.3
20220123123350 52 212 3.5 5.2 0.00 0.00 0.00 52 1028.6
20220123122343 51 252 0.0 2.6 0.00 0.00 0.00 52 1028.9
20220123121352 50 247 0.0 3.5 0.00 0.00 0.00 53 1028.9
20220123120356 50 254 0.0 2.6 0.00 0.00 0.00 52 1029.0
20220123115345 49 274 0.0 0.0 0.00 0.00 0.00 54 1029.2
20220123114340 48 275 0.0 0.9 0.00 0.00 0.00 54 1029.4
20220123113343 48 290 0.0 0.0 0.00 0.00 0.00 57 1029.6
20220123112341 47 290 0.0 0.0 0.00 0.00 0.00 59 1029.8
20220123111345 45 290 0.0 0.0 0.00 0.00 0.00 63 1029.9
20220123110341 44 294 0.0 0.0 0.00 0.00 0.00 64 1030.1
20220123105340 43 294 0.0 0.0 0.00 0.00 0.00 66 1030.3
20220123104339 42 297 0.0 0.0 0.00 0.00 0.00 67 1030.4
20220123103340 41 297 0.0 0.0 0.00 0.00 0.00 70 1030.6
20220123102345 41 297 0.0 0.0 0.00 0.00 0.00 70 1030.7